Weather History for Millville, NJ

Change the Weather History Date:

Wednesday, September 26, 2012

  Actual Average Record
Temperature  
Mean Temperature 72 °F -  
Max Temperature 82 °F 74 °F 91 °F (1970)
Min Temperature 63 °F 54 °F 39 °F (1963)
Cooling Degree Days 7    
Growing Degree Days 22 (Base 50)    
Moisture  
Dew Point 59 °F    
Average Humidity 66    
Maximum Humidity 90    
Minimum Humidity 45    
Precipitation  
Precipitation 0.04 in - - ()
Sea Level Pressure  
Sea Level Pressure 30.11 in    
Wind  
Wind Speed 6 mph (SW)    
Max Wind Speed 13 mph    
Max Gust Speed 18 mph    
Visibility 10 miles    
Events Rain    
Averages and records for this station are not official NWS values.
T = Trace of Precipitation, MM = Missing Value Source: NWS Daily Summary

Daily Weather History Graph

Daily Weather History Graph

Search for Another Location

Airport:

Trip Planner

Search our weather history database for the weather conditions in past years. The results will help you decide how hot, cold, wet, or windy it might be!

Date:

Astronomy

Sep. 26, 2012 Rise Set
Actual Time 6:52 AM EDT 6:50 PM EDT
Civil Twilight 6:25 AM EDT 7:16 PM EDT
Nautical Twilight 5:54 AM EDT 7:47 PM EDT
Astronomical Twilight 5:22 AM EDT 8:19 PM EDT
Moon 4:47 PM EDT (9/26) 3:16 AM EDT (9/26)
Length of Visible Light 12h 51m
Length of Day
11h 58m
Waxing Gibbous, 88% of the Moon is Illuminated
Sep 26
Waxing Gibbous
Sep 29
Full
Oct 8
Last Quarter
Oct 15
New
Oct 21
First Quarter

Hourly Weather History & Observations

Time (EDT) Temp. Heat Index Dew Point Humidity Pressure Visibility Wind Dir Wind Speed Gust Speed Precip Events Conditions
12:54 AM 66.2 °F - 55.4 °F 68% 30.16 in 10.0 mi Variable 4.6 mph - N/A Rain Light Rain
1:54 AM 66.0 °F - 57.0 °F 73% 30.14 in 10.0 mi South 5.8 mph - N/A   Clear
2:54 AM 66.0 °F - 57.0 °F 73% 30.12 in 10.0 mi Variable 6.9 mph - N/A   Partly Cloudy
3:54 AM 66.0 °F - 57.9 °F 75% 30.12 in 10.0 mi Variable 5.8 mph - N/A   Mostly Cloudy
4:54 AM 66.0 °F - 59.0 °F 78% 30.11 in 10.0 mi Variable 4.6 mph - 0.00 in Rain Light Rain
5:54 AM 66.9 °F - 57.0 °F 70% 30.11 in 10.0 mi SSW 8.1 mph - 0.00 in   Overcast
6:54 AM 63.0 °F - 60.1 °F 90% 30.12 in 10.0 mi Variable 4.6 mph - 0.04 in   Partly Cloudy
7:54 AM 64.0 °F - 60.1 °F 87% 30.13 in 10.0 mi SSW 4.6 mph - N/A   Scattered Clouds
8:54 AM 66.9 °F - 57.9 °F 73% 30.13 in 10.0 mi SW 4.6 mph - N/A   Mostly Cloudy
9:54 AM 70.0 °F - 57.9 °F 65% 30.14 in 10.0 mi WSW 12.7 mph 18.4 mph N/A   Clear
10:54 AM 72.0 °F - 57.9 °F 61% 30.13 in 10.0 mi SW 5.8 mph 17.3 mph N/A   Clear
11:54 AM 75.0 °F - 59.0 °F 57% 30.12 in 10.0 mi Variable 5.8 mph - N/A   Scattered Clouds
12:54 PM 77.0 °F - 59.0 °F 54% 30.09 in 10.0 mi SW 8.1 mph - N/A   Scattered Clouds
1:54 PM 77.0 °F - 59.0 °F 54% 30.09 in 10.0 mi SW 8.1 mph - N/A   Clear
2:54 PM 81.0 °F 81.6 °F 60.1 °F 49% 30.06 in 10.0 mi Variable 5.8 mph - N/A   Clear
3:54 PM 81.0 °F 81.6 °F 60.1 °F 49% 30.06 in 10.0 mi WSW 10.4 mph - N/A   Clear
4:54 PM 81.0 °F 81.1 °F 57.9 °F 45% 30.05 in 10.0 mi SW 10.4 mph 17.3 mph N/A   Clear
5:54 PM 77.0 °F - 59.0 °F 54% 30.06 in 10.0 mi Calm Calm - N/A   Clear
6:54 PM 75.0 °F - 61.0 °F 62% 30.08 in 10.0 mi SW 5.8 mph - N/A   Clear
8:54 PM 73.0 °F - 62.1 °F 68% 30.10 in 10.0 mi SSW 4.6 mph - N/A   Partly Cloudy
9:54 PM 72.0 °F - 62.1 °F 71% 30.11 in 10.0 mi SW 4.6 mph - N/A   Clear
10:54 PM 71.1 °F - 62.1 °F 73% 30.11 in 10.0 mi Variable 4.6 mph - N/A   Clear
11:54 PM 71.6 °F - 62.6 °F 73% 30.11 in 10.0 mi WSW 5.8 mph - N/A   Clear